STARLINK-2235 (48581 NORAD) Tracking and Keplerian Element Data

This shows tracking and keplerian element data for the satellite.

Feedback or suggestion? Click here.




ElementValue
Catalog48581
NameSTARLINK-2235
Epoch Orbit368
Epoch Day288.00002315
Epoch Year2021
RAAN119.6779
Inclination53.0538
Eccentricity0.0002314
Argument of Perigee27.5298
Mean Anonmoly36.5486
Mean Motion15.42117602
Decay Rate0.0005791
L11 48581U 21041AE 21288.00002315 .00057910 00000-0 13319-2 0 9997
L22 48581 53.0538 119.6779 0002314 27.5298 36.5486 15.42117602 3683

Live tracking and technical data element details for STARLINK-2235 (NORAD 48581). STARLINK-2235 can be tracked NOW for your location showing map with azimuth and elevation plus other details from your city location.

Track the satellite on the map from your city or location and see movement details for azimuth, elevation, latitude, longitude, range, height, and movement on the map or in text.







IsCatalogInMostPopularTable: catalog: 48581, numindb: 39
Update: records affected: 1



GetName: 48581 STARLINK-2235

Hit Count: updated at: Tue, 19 Oct 2021 09:31:34 GMT